Retour au catalogue

STARLINK DEPLOYMENT RAIL

ActifSSO
NORAD 47423·DEBRIS·🇺🇸 United States
Ce nom de satellite n'a pas encore été confirmé par des sources officielles.

Lancé Jan 24, 2021 depuis Cape Canaveral Space Force Station

Loading…

Prochains Passages (prochaines 24 heures)

TLE

FraisSource: Space-Track

Époque: Sep 14, 2026, 13:18 UTC

1 47423U 21006L   26257.55484671  .00004474  00000-0  13287-3 0  9994
2 47423  97.2132 302.2761 0009566 225.4923 134.5540 15.35251168313376

Suivez STARLINK DEPLOYMENT RAIL en temps réel avec AllMySat

Download on the App Store